カタログに戻る

STARLINK-34121

運用中通信VLEO
NORAD 63961·PAYLOAD·🇺🇸 United States

打ち上げ May 13, 2025 から Cape Canaveral Space Force Station

Loading…

次のパス (今後24時間)

TLE

最新Source: CelesTrak SupGP

元期: Sep 14, 2026, 20:39 UTC

1 63961C 25099K   26257.86090278  .00010412  00000+0  37705-3 0  2571
2 63961  42.9993 187.8963 0001158 262.5225 231.7915 15.27580419    15

AllMySatでSTARLINK-34121をリアルタイム追跡

Download on the App Store